contact:dominique.lefevre@mio.osupytheas.fr, maurice.libes@osupytheas.fr, didier.mallarino@osupytheas.fr
Project:EMSO http://www.emso-fr.org/EMSO-France
Depth: 2436.0 m
Title:EMSO Ligure Ouest : Data MII capteur AQUADOPP
Date,Latitude,Longitude,X_East,Y_North,Z_Up,Amplitude_X,Amplitude_Y,Amplitude_Z,Batterie,SoundSpeed,Heading,Pitch,Roll,Pressure,TIS,Speed,Direction
, degrees North, degrees East, m.s-1, m.s-1,m.s-1, 1, 1, 1, Volt, m.s-1, degree, degree, degree, dbar, degree_C, m.s-1, degree
2019-08-27T00:00:40,42.805,6.029,0.015,0.006,-0.045,103.0,108.0,100.0,13.3,1505.3,324.5,-0.7,1.8,2470.017,13.33,0.016,68.2
2019-08-27T00:03:41,42.805,6.029,0.026,0.0,0.004,105.0,109.0,100.0,13.4,1505.3,326.2,-0.7,1.9,2470.069,13.33,0.026,90.0
2019-08-27T00:06:42,42.805,6.029,0.035,0.008,-0.011,103.0,108.0,101.0,13.4,1505.3,326.9,-0.7,1.8,2470.057,13.33,0.035,77.1
2019-08-27T00:09:43,42.805,6.029,0.021,0.017,-0.005,104.0,110.0,102.0,13.3,1505.3,326.1,-0.7,1.9,2470.03,13.33,0.027,51.0
2019-08-27T00:12:44,42.805,6.029,0.035,0.006,-0.032,105.0,108.0,100.0,13.4,1505.3,325.4,-0.7,1.9,2470.013,13.33,0.035,80.3
2019-08-27T00:15:45,42.805,6.029,0.042,0.012,0.013,104.0,107.0,100.0,13.4,1505.3,325.0,-0.7,1.9,2470.055,13.33,0.043,74.1
2019-08-27T00:18:46,42.805,6.029,0.028,0.008,0.002,103.0,109.0,99.0,13.4,1505.3,325.6,-0.7,1.9,2470.062,13.33,0.029,74.1
2019-08-27T00:21:47,42.805,6.029,0.024,0.028,-0.015,102.0,108.0,100.0,13.3,1505.3,326.2,-0.7,1.8,2470.075,13.33,0.036,40.6
2019-08-27T00:24:48,42.805,6.029,0.017,0.005,-0.002,102.0,108.0,100.0,13.4,1505.3,325.2,-0.7,1.9,2470.067,13.33,0.017,73.6
2019-08-27T00:27:49,42.805,6.029,0.014,0.005,-0.048,101.0,108.0,98.0,13.4,1505.3,328.9,-0.7,1.8,2470.074,13.32,0.014,70.4
2019-08-27T00:30:50,42.805,6.029,0.016,0.026,-0.04,103.0,108.0,99.0,13.4,1505.3,324.6,-0.7,1.8,2470.086,13.32,0.03,31.6
2019-08-27T00:33:51,42.805,6.029,0.028,0.003,-0.039,103.0,108.0,101.0,13.4,1505.3,324.8,-0.7,1.9,2470.061,13.33,0.028,83.9
2019-08-27T00:36:52,42.805,6.029,0.027,-0.002,-0.004,104.0,109.0,100.0,13.4,1505.3,325.7,-0.7,1.8,2470.06,13.32,0.027,94.2
2019-08-27T00:39:54,42.805,6.029,0.021,0.014,-0.015,103.0,108.0,100.0,13.4,1505.3,323.3,-0.7,1.8,2470.086,13.32,0.025,56.3
2019-08-27T00:42:54,42.805,6.029,0.024,0.004,-0.033,102.0,106.0,100.0,13.4,1505.3,328.7,-0.7,1.8,2470.059,13.33,0.024,80.5
2019-08-27T00:45:55,42.805,6.029,0.01,0.0,-0.034,103.0,107.0,100.0,13.4,1505.3,326.9,-0.7,1.9,2470.08,13.32,0.01,90.0
2019-08-27T00:48:57,42.805,6.029,0.016,0.0,-0.009,103.0,107.0,99.0,13.4,1505.3,325.8,-0.7,1.9,2470.064,13.33,0.016,90.0
2019-08-27T00:51:57,42.805,6.029,0.019,0.008,-0.02,103.0,109.0,100.0,13.4,1505.3,325.5,-0.7,1.9,2470.043,13.33,0.02,67.2
2019-08-27T00:54:58,42.805,6.029,0.053,0.007,-0.009,103.0,108.0,101.0,13.4,1505.3,326.3,-0.7,1.8,2470.068,13.33,0.053,82.5
2019-08-27T00:57:59,42.805,6.029,0.002,0.007,-0.029,103.0,107.0,100.0,13.4,1505.3,323.1,-0.7,1.8,2470.078,13.33,0.007,15.9
2019-08-27T01:01:00,42.805,6.029,0.025,0.008,-0.018,102.0,108.0,100.0,13.4,1505.3,326.3,-0.7,1.9,2470.098,13.32,0.026,72.3
2019-08-27T01:04:01,42.805,6.029,0.069,0.015,0.013,103.0,106.0,100.0,13.4,1505.3,324.0,-0.7,1.8,2470.055,13.32,0.07,77.7
2019-08-27T01:07:02,42.805,6.029,-0.002,0.001,-0.043,105.0,106.0,99.0,13.4,1505.3,325.3,-0.7,1.8,2470.056,13.32,0.002,296.6
2019-08-27T01:10:03,42.805,6.029,0.03,-0.005,-0.041,101.0,106.0,99.0,13.4,1505.3,325.0,-0.8,1.8,2470.093,13.32,0.03,99.5
2019-08-27T01:13:04,42.805,6.029,0.035,0.006,-0.041,104.0,108.0,99.0,13.4,1505.3,328.1,-0.7,1.9,2470.037,13.32,0.035,80.3
2019-08-27T01:16:05,42.805,6.029,0.013,-0.013,-0.026,102.0,107.0,100.0,13.4,1505.3,326.6,-0.7,1.8,2470.08,13.32,0.018,135.0
2019-08-27T01:19:06,42.805,6.029,0.055,0.021,0.025,101.0,107.0,100.0,13.4,1505.3,323.9,-0.7,1.8,2470.077,13.32,0.058,69.1
2019-08-27T01:22:07,42.805,6.029,0.035,0.002,0.018,103.0,106.0,100.0,13.4,1505.3,328.4,-0.7,1.8,2470.112,13.32,0.035,86.7
2019-08-27T01:25:08,42.805,6.029,0.027,0.009,0.001,101.0,108.0,100.0,13.4,1505.3,327.4,-0.7,1.8,2470.08,13.32,0.028,71.6
2019-08-27T01:28:09,42.805,6.029,0.046,0.003,-0.052,103.0,107.0,99.0,13.4,1505.3,327.2,-0.7,1.9,2470.137,13.32,0.046,86.3
2019-08-27T01:31:10,42.805,6.029,0.028,0.006,-0.022,103.0,105.0,99.0,13.3,1505.3,326.1,-0.7,1.9,2470.084,13.32,0.028,77.9
2019-08-27T01:34:11,42.805,6.029,0.054,-0.002,-0.014,104.0,106.0,100.0,13.4,1505.3,325.5,-0.7,1.8,2470.069,13.32,0.054,92.1
2019-08-27T01:37:12,42.805,6.029,0.028,0.025,-0.011,103.0,106.0,100.0,13.4,1505.3,327.6,-0.7,1.9,2470.073,13.32,0.037,48.2
2019-08-27T01:40:13,42.805,6.029,0.053,0.006,0.01,104.0,107.0,100.0,13.4,1505.3,326.7,-0.7,1.8,2470.083,13.32,0.053,83.5
2019-08-27T01:43:14,42.805,6.029,0.087,-0.027,-0.032,102.0,105.0,99.0,13.3,1505.3,328.2,-0.7,1.8,2470.085,13.32,0.091,107.2
2019-08-27T01:46:15,42.805,6.029,0.034,0.008,-0.027,101.0,107.0,101.0,13.4,1505.3,323.3,-0.7,1.8,2470.082,13.32,0.034,76.8
2019-08-27T01:49:16,42.805,6.029,0.035,-0.002,-0.045,103.0,107.0,100.0,13.3,1505.3,327.3,-0.7,1.8,2470.108,13.32,0.035,93.3
2019-08-27T01:52:17,42.805,6.029,0.058,-0.007,-0.008,104.0,107.0,99.0,13.3,1505.3,325.7,-0.7,1.8,2470.124,13.32,0.058,96.9
2019-08-27T01:55:18,42.805,6.029,0.046,0.012,0.003,105.0,105.0,100.0,13.4,1505.3,326.1,-0.7,1.9,2470.094,13.32,0.047,75.4
2019-08-27T01:58:19,42.805,6.029,0.009,0.001,-0.041,103.0,105.0,100.0,13.3,1505.3,326.5,-0.7,1.8,2470.116,13.32,0.009,83.7
2019-08-27T02:01:20,42.805,6.029,0.044,-0.001,0.012,104.0,106.0,101.0,13.4,1505.3,325.0,-0.7,1.8,2470.065,13.33,0.044,91.3
2019-08-27T02:04:21,42.805,6.029,0.047,0.001,-0.015,103.0,106.0,100.0,13.4,1505.3,328.5,-0.7,1.8,2470.106,13.33,0.047,88.8
2019-08-27T02:07:22,42.805,6.029,0.024,-0.003,-0.068,103.0,106.0,100.0,13.3,1505.3,327.9,-0.7,1.8,2470.092,13.33,0.024,97.1
2019-08-27T02:10:24,42.805,6.029,0.035,0.017,-0.008,104.0,106.0,99.0,13.4,1505.3,327.9,-0.7,1.8,2470.114,13.33,0.038,64.1
2019-08-27T02:13:24,42.805,6.029,0.031,0.001,-0.025,102.0,106.0,100.0,13.3,1505.3,328.3,-0.7,1.8,2470.106,13.33,0.031,88.2
2019-08-27T02:16:25,42.805,6.029,0.047,-0.004,-0.025,103.0,106.0,99.0,13.4,1505.3,327.4,-0.7,1.8,2470.119,13.33,0.047,94.9
2019-08-27T02:19:26,42.805,6.029,0.062,0.007,-0.026,102.0,108.0,100.0,13.4,1505.3,326.7,-0.7,1.8,2470.089,13.33,0.062,83.6
2019-08-27T02:22:27,42.805,6.029,0.027,-0.012,-0.006,103.0,108.0,100.0,13.4,1505.3,323.6,-0.7,1.8,2470.085,13.33,0.029,114.0
2019-08-27T02:25:28,42.805,6.029,0.022,0.005,-0.014,103.0,106.0,99.0,13.4,1505.3,325.7,-0.7,1.8,2470.108,13.33,0.022,77.2
2019-08-27T02:28:29,42.805,6.029,0.075,-0.01,-0.006,104.0,106.0,100.0,13.4,1505.3,325.5,-0.7,1.9,2470.076,13.33,0.075,97.6
2019-08-27T02:31:30,42.805,6.029,0.023,0.005,-0.014,104.0,106.0,99.0,13.4,1505.3,328.6,-0.7,1.8,2470.065,13.33,0.023,77.7
2019-08-27T02:34:31,42.805,6.029,0.038,0.008,-0.004,103.0,104.0,100.0,13.3,1505.3,324.1,-0.7,1.9,2470.143,13.33,0.038,78.1
2019-08-27T02:37:32,42.805,6.029,0.037,0.0,-0.045,104.0,106.0,98.0,13.3,1505.3,326.6,-0.7,1.9,2470.126,13.33,0.037,90.0
2019-08-27T02:40:33,42.805,6.029,0.026,-0.024,-0.029,103.0,105.0,100.0,13.3,1505.3,325.0,-0.7,1.8,2470.093,13.33,0.035,132.7
2019-08-27T02:43:34,42.805,6.029,0.036,-0.012,-0.045,103.0,105.0,100.0,13.4,1505.3,325.7,-0.7,1.8,2470.115,13.33,0.037,108.4
2019-08-27T02:46:35,42.805,6.029,0.025,-0.007,-0.022,104.0,105.0,102.0,13.4,1505.3,327.0,-0.7,1.8,2470.037,13.33,0.025,105.6
2019-08-27T02:49:36,42.805,6.029,0.053,-0.006,-0.01,103.0,105.0,99.0,13.3,1505.3,325.1,-0.7,1.8,2470.143,13.33,0.053,96.5
2019-08-27T02:52:37,42.805,6.029,0.033,-0.003,0.006,105.0,104.0,99.0,13.4,1505.3,325.9,-0.7,1.8,2470.119,13.33,0.033,95.2
2019-08-27T02:55:38,42.805,6.029,0.036,-0.008,-0.003,104.0,106.0,101.0,13.3,1505.3,327.3,-0.7,1.8,2470.121,13.33,0.036,102.5
2019-08-27T02:58:39,42.805,6.029,0.015,-0.005,-0.021,104.0,106.0,100.0,13.4,1505.3,324.0,-0.7,1.8,2470.126,13.33,0.015,108.4
2019-08-27T03:01:40,42.805,6.029,0.022,0.007,0.001,104.0,105.0,98.0,13.4,1505.3,326.9,-0.7,1.8,2470.128,13.33,0.023,72.4
2019-08-27T03:04:41,42.805,6.029,0.058,-0.002,-0.002,105.0,105.0,100.0,13.4,1505.3,325.3,-0.7,1.8,2470.167,13.33,0.058,92.0
2019-08-27T03:07:42,42.805,6.029,0.04,-0.007,-0.001,101.0,105.0,100.0,13.4,1505.3,324.1,-0.7,1.8,2470.179,13.33,0.04,99.9
2019-08-27T03:10:43,42.805,6.029,0.024,0.0,0.01,104.0,105.0,99.0,13.4,1505.3,325.1,-0.7,1.8,2470.176,13.33,0.024,90.0
2019-08-27T03:13:44,42.805,6.029,0.073,-0.003,0.004,102.0,107.0,99.0,13.4,1505.3,324.2,-0.7,1.8,2470.127,13.33,0.073,92.4
2019-08-27T03:16:45,42.805,6.029,0.051,-0.003,0.002,103.0,106.0,98.0,13.4,1505.3,326.2,-0.7,1.8,2470.121,13.33,0.051,93.4
2019-08-27T03:19:46,42.805,6.029,0.021,-0.026,-0.026,103.0,106.0,100.0,13.4,1505.3,327.6,-0.7,1.8,2470.121,13.33,0.033,141.1
2019-08-27T03:22:47,42.805,6.029,-0.015,-0.029,-0.051,103.0,107.0,99.0,13.3,1505.3,326.6,-0.7,1.8,2470.126,13.33,0.032,207.4
2019-08-27T03:25:48,42.805,6.029,0.011,0.009,-0.043,103.0,106.0,101.0,13.3,1505.3,325.5,-0.7,1.8,2470.118,13.33,0.014,50.7
2019-08-27T03:28:49,42.805,6.029,0.015,-0.003,-0.008,105.0,107.0,99.0,13.4,1505.3,326.1,-0.7,1.8,2470.151,13.33,0.015,101.3
2019-08-27T03:31:50,42.805,6.029,-0.039,-0.013,-0.079,102.0,107.0,100.0,13.4,1505.3,327.0,-0.7,1.8,2470.178,13.33,0.041,251.6
2019-08-27T03:34:51,42.805,6.029,-0.005,-0.018,-0.05,103.0,107.0,100.0,13.4,1505.3,328.4,-0.7,1.8,2470.101,13.33,0.018,195.5
2019-08-27T03:37:52,42.805,6.029,0.039,-0.006,-0.002,103.0,107.0,98.0,13.4,1505.3,326.0,-0.7,1.9,2470.151,13.33,0.039,98.7
2019-08-27T03:40:53,42.805,6.029,0.049,-0.016,0.015,103.0,107.0,100.0,13.4,1505.3,323.8,-0.8,1.8,2470.138,13.33,0.051,108.1
2019-08-27T03:43:54,42.805,6.029,0.032,-0.006,0.015,103.0,106.0,100.0,13.4,1505.3,327.7,-0.7,1.9,2470.168,13.33,0.032,100.6
2019-08-27T03:46:55,42.805,6.029,-0.007,-0.014,-0.016,103.0,104.0,99.0,13.4,1505.3,325.0,-0.7,1.8,2470.098,13.33,0.015,206.6
2019-08-27T03:49:56,42.805,6.029,0.015,-0.009,-0.016,104.0,105.0,98.0,13.3,1505.3,324.5,-0.7,1.9,2470.134,13.33,0.017,121.0
2019-08-27T03:52:57,42.805,6.029,0.002,-0.009,-0.043,105.0,106.0,100.0,13.3,1505.3,327.0,-0.7,1.8,2470.175,13.33,0.009,167.5
2019-08-27T03:55:58,42.805,6.029,0.026,-0.01,0.007,105.0,104.0,99.0,13.4,1505.3,326.7,-0.7,1.9,2470.156,13.33,0.027,111.0
2019-08-27T03:58:59,42.805,6.029,0.066,-0.012,0.022,104.0,106.0,99.0,13.4,1505.3,325.6,-0.7,1.8,2470.151,13.33,0.067,100.3
2019-08-27T04:02:00,42.805,6.029,0.03,-0.007,-0.006,103.0,104.0,100.0,13.4,1505.3,324.1,-0.7,1.9,2470.109,13.33,0.03,103.1
2019-08-27T04:05:01,42.805,6.029,0.032,0.006,0.014,104.0,105.0,100.0,13.4,1505.3,327.9,-0.7,1.9,2470.159,13.33,0.032,79.4
2019-08-27T04:08:02,42.805,6.029,-0.024,-0.018,-0.04,104.0,104.0,100.0,13.4,1505.3,324.7,-0.7,1.8,2470.142,13.33,0.03,233.1
2019-08-27T04:11:03,42.805,6.029,0.017,-0.003,-0.021,103.0,107.0,100.0,13.3,1505.3,324.5,-0.7,1.8,2470.138,13.33,0.017,100.0
2019-08-27T04:14:04,42.805,6.029,-0.018,0.0,-0.036,104.0,106.0,101.0,13.4,1505.3,326.8,-0.7,1.8,2470.17,13.33,0.018,270.0
2019-08-27T04:17:05,42.805,6.029,0.023,-0.015,-0.016,103.0,105.0,99.0,13.3,1505.3,323.7,-0.7,1.8,2470.176,13.33,0.027,123.1
2019-08-27T04:20:06,42.805,6.029,0.028,-0.003,-0.016,102.0,104.0,100.0,13.4,1505.3,328.5,-0.7,1.8,2470.133,13.33,0.028,96.1
2019-08-27T04:23:07,42.805,6.029,0.025,-0.004,-0.011,105.0,105.0,99.0,13.3,1505.3,326.3,-0.7,1.8,2470.127,13.33,0.025,99.1
2019-08-27T04:26:08,42.805,6.029,0.0,0.005,-0.003,104.0,105.0,99.0,13.4,1505.3,325.7,-0.7,1.8,2470.158,13.33,0.005,0.0
2019-08-27T04:29:09,42.805,6.029,0.0,0.007,-0.013,104.0,105.0,100.0,13.4,1505.3,327.4,-0.7,1.8,2470.124,13.33,0.007,0.0
2019-08-27T04:32:10,42.805,6.029,-0.014,-0.007,-0.033,103.0,106.0,102.0,13.4,1505.3,326.8,-0.7,1.8,2470.137,13.33,0.015,243.4
2019-08-27T04:35:11,42.805,6.029,0.039,-0.016,-0.022,105.0,105.0,99.0,13.4,1505.3,323.9,-0.7,1.8,2470.126,13.33,0.042,112.3
2019-08-27T04:38:12,42.805,6.029,0.039,-0.02,-0.01,102.0,106.0,100.0,13.4,1505.3,326.3,-0.7,1.8,2470.099,13.33,0.043,117.1
2019-08-27T04:41:13,42.805,6.029,0.003,-0.008,-0.011,104.0,106.0,101.0,13.4,1505.3,325.0,-0.7,1.8,2470.163,13.33,0.008,159.4
2019-08-27T04:44:14,42.805,6.029,0.013,-0.008,-0.02,104.0,105.0,99.0,13.3,1505.3,327.1,-0.7,1.9,2470.106,13.33,0.015,121.6
2019-08-27T04:47:15,42.805,6.029,0.013,-0.014,-0.01,103.0,105.0,101.0,13.4,1505.3,325.3,-0.7,1.8,2470.159,13.33,0.019,137.1
2019-08-27T04:50:16,42.805,6.029,0.035,0.012,0.041,104.0,106.0,100.0,13.4,1505.3,326.5,-0.7,1.8,2470.139,13.33,0.037,71.1
2019-08-27T04:53:17,42.805,6.029,0.038,0.004,0.015,104.0,106.0,101.0,13.4,1505.3,323.1,-0.7,1.8,2470.126,13.33,0.038,84.0
2019-08-27T04:56:18,42.805,6.029,0.028,0.01,0.018,105.0,106.0,99.0,13.3,1505.3,324.4,-0.7,1.8,2470.123,13.33,0.029,70.4
2019-08-27T04:59:19,42.805,6.029,0.021,0.001,-0.008,105.0,106.0,100.0,13.4,1505.3,325.0,-0.7,1.8,2470.168,13.33,0.021,87.3
2019-08-27T05:02:20,42.805,6.029,-0.011,-0.013,-0.016,103.0,105.0,100.0,13.4,1505.3,326.6,-0.7,1.8,2470.176,13.33,0.017,220.2
2019-08-27T05:05:21,42.805,6.029,0.013,-0.009,-0.025,106.0,106.0,100.0,13.4,1505.3,325.1,-0.7,1.9,2470.099,13.33,0.015,124.7
2019-08-27T05:08:22,42.805,6.029,-0.005,-0.028,-0.055,103.0,106.0,101.0,13.3,1505.3,325.2,-0.7,1.8,2470.161,13.33,0.028,190.1
2019-08-27T05:11:23,42.805,6.029,-0.015,-0.015,-0.032,102.0,105.0,99.0,13.4,1505.3,327.1,-0.7,1.8,2470.142,13.33,0.021,225.0
2019-08-27T05:14:24,42.805,6.029,-0.009,-0.012,-0.018,104.0,106.0,99.0,13.4,1505.3,323.2,-0.7,1.8,2470.154,13.33,0.015,216.9
2019-08-27T05:17:25,42.805,6.029,0.005,0.002,-0.006,104.0,105.0,100.0,13.3,1505.3,328.4,-0.7,1.9,2470.123,13.33,0.005,68.2
2019-08-27T05:20:26,42.805,6.029,0.001,0.012,-0.04,105.0,106.0,101.0,13.3,1505.3,326.7,-0.7,1.9,2470.145,13.33,0.012,4.8
2019-08-27T05:23:27,42.805,6.029,0.0,0.005,0.002,103.0,105.0,100.0,13.3,1505.3,328.1,-0.7,1.8,2470.108,13.33,0.005,0.0
2019-08-27T05:26:28,42.805,6.029,0.021,-0.018,0.02,104.0,106.0,100.0,13.3,1505.3,324.7,-0.7,1.9,2470.105,13.33,0.027,130.6
2019-08-27T05:29:29,42.805,6.029,0.01,0.001,0.0,103.0,104.0,101.0,13.4,1505.3,327.4,-0.7,1.8,2470.103,13.33,0.01,84.3
2019-08-27T05:32:30,42.805,6.029,-0.021,0.002,0.007,104.0,105.0,100.0,13.4,1505.3,326.9,-0.7,1.8,2470.09,13.33,0.021,275.4
2019-08-27T05:35:31,42.805,6.029,0.015,-0.022,0.018,103.0,105.0,100.0,13.3,1505.3,325.2,-0.7,1.8,2470.132,13.33,0.026,145.7
2019-08-27T05:38:32,42.805,6.029,0.043,-0.005,-0.028,103.0,107.0,100.0,13.4,1505.3,323.8,-0.7,1.8,2470.1,13.33,0.043,96.6
2019-08-27T05:41:33,42.805,6.029,0.019,-0.007,0.042,104.0,107.0,99.0,13.3,1505.3,325.0,-0.7,1.8,2470.142,13.33,0.02,110.2
2019-08-27T05:44:35,42.805,6.029,0.026,0.0,0.003,103.0,107.0,99.0,13.3,1505.3,323.8,-0.7,1.9,2470.122,13.33,0.026,90.0
2019-08-27T05:47:35,42.805,6.029,-0.008,-0.018,-0.022,103.0,106.0,100.0,13.3,1505.3,326.9,-0.7,1.8,2470.126,13.33,0.019,204.0
2019-08-27T05:50:36,42.805,6.029,0.028,-0.017,0.018,102.0,106.0,99.0,13.3,1505.3,326.9,-0.7,1.9,2470.109,13.33,0.032,121.3
2019-08-27T05:53:37,42.805,6.029,-0.01,0.003,-0.016,103.0,107.0,99.0,13.4,1505.3,326.5,-0.7,1.8,2470.137,13.33,0.01,286.7
2019-08-27T05:56:38,42.805,6.029,-0.009,-0.023,-0.003,103.0,108.0,100.0,13.4,1505.3,328.5,-0.7,1.8,2470.161,13.33,0.024,201.4
2019-08-27T05:59:39,42.805,6.029,-0.026,0.004,-0.019,102.0,107.0,100.0,13.4,1505.3,326.0,-0.7,1.8,2470.168,13.33,0.026,278.7
2019-08-27T06:02:40,42.805,6.029,0.001,-0.023,-0.019,102.0,107.0,101.0,13.4,1505.3,326.8,-0.7,1.9,2470.09,13.33,0.023,177.5
2019-08-27T06:05:41,42.805,6.029,-0.008,-0.014,-0.026,104.0,106.0,99.0,13.4,1505.3,323.2,-0.7,1.8,2470.123,13.33,0.016,209.7
2019-08-27T06:08:42,42.805,6.029,0.017,0.017,0.006,104.0,107.0,100.0,13.4,1505.3,326.9,-0.7,1.8,2470.115,13.33,0.024,45.0
2019-08-27T06:11:43,42.805,6.029,0.014,-0.018,0.041,103.0,107.0,100.0,13.4,1505.3,324.8,-0.7,1.8,2470.085,13.33,0.022,142.1
2019-08-27T06:14:44,42.805,6.029,0.023,0.01,0.023,103.0,107.0,100.0,13.3,1505.3,327.8,-0.7,1.8,2470.101,13.33,0.025,66.5
2019-08-27T06:17:45,42.805,6.029,0.034,0.004,0.048,103.0,108.0,101.0,13.3,1505.3,325.3,-0.7,1.8,2470.132,13.33,0.034,83.3
2019-08-27T06:20:46,42.805,6.029,0.009,0.003,-0.009,103.0,107.0,100.0,13.4,1505.3,325.1,-0.7,1.8,2470.132,13.33,0.009,71.6
2019-08-27T06:23:47,42.805,6.029,0.027,0.0,-0.021,103.0,107.0,100.0,13.4,1505.3,327.7,-0.7,1.8,2470.097,13.33,0.026,90.0
2019-08-27T06:26:48,42.805,6.029,-0.009,-0.016,-0.03,102.0,107.0,100.0,13.4,1505.3,325.0,-0.7,1.8,2470.11,13.33,0.018,209.4
2019-08-27T06:29:49,42.805,6.029,0.032,0.002,-0.014,103.0,107.0,100.0,13.4,1505.3,323.2,-0.7,1.8,2470.134,13.33,0.032,86.4
2019-08-27T06:32:50,42.805,6.029,-0.022,0.01,-0.002,103.0,108.0,100.0,13.4,1505.3,324.5,-0.7,1.8,2470.124,13.33,0.024,294.4
2019-08-27T06:35:51,42.805,6.029,-0.078,-0.011,-0.091,103.0,106.0,100.0,13.4,1505.3,324.6,-0.7,1.8,2470.099,13.33,0.078,262.0
2019-08-27T06:38:52,42.805,6.029,-0.045,-0.007,-0.075,102.0,106.0,100.0,13.4,1505.3,325.5,-0.7,1.9,2470.113,13.33,0.045,261.2
2019-08-27T06:41:53,42.805,6.029,-0.044,0.0,-0.027,103.0,105.0,99.0,13.3,1505.3,325.9,-0.7,1.8,2470.09,13.33,0.044,270.0
2019-08-27T06:44:54,42.805,6.029,-0.024,-0.006,-0.019,104.0,107.0,99.0,13.4,1505.3,328.3,-0.7,1.8,2470.086,13.33,0.024,256.0
2019-08-27T06:47:55,42.805,6.029,-0.058,-0.015,-0.051,103.0,106.0,99.0,13.3,1505.3,326.0,-0.7,1.8,2470.069,13.33,0.059,255.5
2019-08-27T06:50:57,42.805,6.029,-0.065,-0.018,-0.076,104.0,106.0,100.0,13.3,1505.3,326.2,-0.7,1.8,2470.086,13.33,0.067,254.5
2019-08-27T06:53:58,42.805,6.029,-0.007,0.013,-0.016,103.0,104.0,100.0,13.3,1505.3,326.0,-0.7,1.8,2470.078,13.33,0.014,331.7
2019-08-27T06:56:58,42.805,6.029,0.002,-0.003,-0.022,102.0,105.0,100.0,13.4,1505.3,325.5,-0.7,1.8,2470.133,13.33,0.003,146.3
2019-08-27T07:00:00,42.805,6.029,-0.046,-0.01,-0.023,104.0,105.0,98.0,13.3,1505.3,326.9,-0.7,1.9,2470.108,13.33,0.047,257.7
2019-08-27T07:03:00,42.805,6.029,-0.012,0.0,-0.017,103.0,106.0,100.0,13.4,1505.4,326.0,-0.7,1.8,2470.103,13.34,0.012,270.0
2019-08-27T07:06:02,42.805,6.029,-0.026,0.0,-0.065,104.0,106.0,99.0,13.3,1505.4,325.9,-0.7,1.8,2470.084,13.34,0.026,270.0
2019-08-27T07:09:03,42.805,6.029,-0.003,0.01,-0.014,102.0,106.0,100.0,13.3,1505.3,328.3,-0.7,1.8,2470.043,13.33,0.01,343.3
2019-08-27T07:12:04,42.805,6.029,-0.003,-0.001,-0.017,103.0,107.0,98.0,13.3,1505.3,325.4,-0.7,1.9,2470.075,13.33,0.003,251.6
2019-08-27T07:15:05,42.805,6.029,-0.007,0.014,-0.006,103.0,104.0,99.0,13.4,1505.4,325.5,-0.7,1.8,2470.128,13.34,0.015,333.4
2019-08-27T07:18:05,42.805,6.029,0.012,0.014,0.002,102.0,106.0,99.0,13.3,1505.4,326.9,-0.7,1.8,2470.124,13.34,0.018,40.6
2019-08-27T07:21:07,42.805,6.029,0.015,0.013,0.0,104.0,108.0,101.0,13.4,1505.4,327.6,-0.7,1.8,2470.083,13.34,0.019,49.1
2019-08-27T07:24:08,42.805,6.029,-0.001,0.0,0.002,103.0,106.0,98.0,13.3,1505.4,323.4,-0.7,1.8,2470.062,13.34,0.001,270.0
2019-08-27T07:27:08,42.805,6.029,0.016,-0.014,-0.02,103.0,105.0,100.0,13.4,1505.4,326.8,-0.7,1.8,2470.162,13.34,0.021,131.2
2019-08-27T07:30:10,42.805,6.029,-0.015,0.018,-0.019,103.0,107.0,100.0,13.4,1505.4,326.5,-0.7,1.8,2470.085,13.34,0.023,320.2
2019-08-27T07:33:11,42.805,6.029,0.01,0.018,0.02,104.0,107.0,104.0,13.4,1505.4,323.8,-0.7,1.9,2470.026,13.34,0.02,29.1
2019-08-27T07:36:12,42.805,6.029,0.008,0.006,0.002,102.0,108.0,100.0,13.4,1505.4,325.2,-0.7,1.8,2470.104,13.34,0.01,53.1
2019-08-27T07:39:13,42.805,6.029,-0.014,-0.014,0.0,104.0,105.0,99.0,13.4,1505.4,326.8,-0.7,1.9,2470.066,13.34,0.019,225.0
2019-08-27T07:42:14,42.805,6.029,-0.008,-0.002,-0.009,103.0,107.0,100.0,13.3,1505.4,327.2,-0.7,1.8,2470.043,13.34,0.008,256.0
2019-08-27T07:45:15,42.805,6.029,-0.019,-0.004,-0.021,103.0,106.0,100.0,13.4,1505.3,325.2,-0.7,1.8,2470.126,13.33,0.019,258.1
2019-08-27T07:48:16,42.805,6.029,-0.025,0.021,-0.035,103.0,106.0,99.0,13.3,1505.3,326.5,-0.7,1.9,2470.056,13.33,0.032,310.0
2019-08-27T07:51:17,42.805,6.029,-0.039,-0.004,-0.088,104.0,107.0,100.0,13.3,1505.3,327.3,-0.7,1.8,2470.087,13.33,0.039,264.1
2019-08-27T07:54:18,42.805,6.029,-0.025,0.006,-0.063,103.0,106.0,99.0,13.4,1505.4,325.3,-0.7,1.8,2470.069,13.34,0.025,283.5
2019-08-27T07:57:19,42.805,6.029,0.026,0.005,-0.021,104.0,108.0,100.0,13.3,1505.4,324.0,-0.7,1.8,2470.032,13.34,0.026,79.1
2019-08-27T08:00:20,42.805,6.029,-0.018,-0.004,-0.015,104.0,107.0,100.0,13.4,1505.4,325.4,-0.7,1.9,2470.075,13.34,0.018,257.5
2019-08-27T08:03:21,42.805,6.029,-0.011,0.011,-0.023,103.0,107.0,100.0,13.4,1505.4,327.5,-0.7,1.8,2470.067,13.34,0.015,315.0
2019-08-27T08:06:22,42.805,6.029,0.038,-0.027,-0.021,103.0,108.0,100.0,13.4,1505.4,327.2,-0.7,1.9,2470.072,13.34,0.046,125.4
2019-08-27T08:09:23,42.805,6.029,-0.02,0.014,-0.015,103.0,106.0,99.0,13.4,1505.4,325.6,-0.7,1.8,2470.064,13.34,0.024,305.0
2019-08-27T08:12:24,42.805,6.029,-0.043,0.01,0.001,101.0,107.0,99.0,13.4,1505.4,326.8,-0.7,1.8,2470.076,13.34,0.044,283.1
2019-08-27T08:15:25,42.805,6.029,-0.025,0.017,-0.048,103.0,106.0,98.0,13.4,1505.4,328.2,-0.7,1.8,2470.056,13.34,0.03,304.2
2019-08-27T08:18:26,42.805,6.029,-0.01,-0.003,-0.022,104.0,106.0,100.0,13.3,1505.4,327.2,-0.6,1.8,2470.049,13.34,0.01,253.3
2019-08-27T08:21:27,42.805,6.029,-0.005,-0.013,-0.01,103.0,109.0,98.0,13.4,1505.4,327.3,-0.7,1.9,2470.074,13.34,0.013,201.0
2019-08-27T08:24:28,42.805,6.029,-0.031,0.019,-0.042,102.0,107.0,97.0,13.4,1505.4,324.9,-0.7,1.8,2470.08,13.34,0.036,301.5
2019-08-27T08:27:29,42.805,6.029,-0.009,0.022,-0.005,104.0,109.0,99.0,13.4,1505.4,323.6,-0.7,1.9,2470.043,13.34,0.023,337.8
2019-08-27T08:30:30,42.805,6.029,-0.015,-0.002,-0.023,102.0,111.0,102.0,13.4,1505.4,326.0,-0.7,1.8,2470.062,13.34,0.015,262.4
2019-08-27T08:33:31,42.805,6.029,-0.013,0.002,0.006,103.0,108.0,99.0,13.4,1505.4,327.2,-0.7,1.9,2470.074,13.34,0.013,278.7
2019-08-27T08:36:32,42.805,6.029,-0.031,0.006,-0.003,103.0,108.0,99.0,13.4,1505.4,323.9,-0.7,1.8,2470.015,13.34,0.031,281.0
2019-08-27T08:39:33,42.805,6.029,-0.014,0.003,-0.05,104.0,112.0,98.0,13.3,1505.4,325.4,-0.7,1.8,2470.068,13.34,0.014,282.1
2019-08-27T08:42:34,42.805,6.029,0.003,0.0,0.012,104.0,109.0,99.0,13.3,1505.4,327.0,-0.7,1.8,2470.036,13.34,0.003,90.0
2019-08-27T08:45:35,42.805,6.029,-0.016,0.003,0.006,102.0,108.0,101.0,13.3,1505.4,325.3,-0.7,1.8,2470.028,13.34,0.016,280.6
2019-08-27T08:48:36,42.805,6.029,-0.02,0.009,-0.032,104.0,107.0,99.0,13.3,1505.4,324.8,-0.7,1.8,2470.037,13.34,0.021,294.2
2019-08-27T08:51:37,42.805,6.029,0.0,0.016,-0.017,102.0,107.0,98.0,13.3,1505.4,325.0,-0.7,1.8,2470.041,13.34,0.016,0.0
2019-08-27T08:54:38,42.805,6.029,-0.039,-0.004,-0.07,102.0,107.0,99.0,13.4,1505.4,327.0,-0.7,1.8,2469.99,13.34,0.039,264.1
2019-08-27T08:57:39,42.805,6.029,-0.03,0.016,-0.042,102.0,109.0,99.0,13.3,1505.4,324.9,-0.7,1.8,2470.077,13.34,0.034,298.1
2019-08-27T09:00:40,42.805,6.029,-0.038,0.008,-0.034,101.0,110.0,100.0,13.3,1505.4,326.7,-0.7,1.8,2470.027,13.34,0.038,281.9
2019-08-27T09:03:41,42.805,6.029,-0.032,0.01,-0.032,104.0,111.0,99.0,13.4,1505.4,324.7,-0.7,1.8,2470.026,13.34,0.033,287.4
2019-08-27T09:06:42,42.805,6.029,0.0,0.015,-0.021,102.0,109.0,100.0,13.3,1505.4,326.6,-0.7,1.8,2470.004,13.34,0.015,0.0
2019-08-27T09:09:43,42.805,6.029,-0.021,0.008,-0.021,104.0,109.0,101.0,13.4,1505.4,325.3,-0.7,1.8,2470.024,13.34,0.022,290.9
2019-08-27T09:12:44,42.805,6.029,-0.027,-0.003,-0.037,103.0,110.0,100.0,13.4,1505.4,325.2,-0.7,1.8,2470.026,13.34,0.027,263.7
2019-08-27T09:15:45,42.805,6.029,-0.006,0.012,-0.016,103.0,110.0,100.0,13.4,1505.4,326.1,-0.7,1.8,2470.06,13.34,0.013,333.4
2019-08-27T09:18:46,42.805,6.029,-0.001,0.022,0.002,102.0,109.0,99.0,13.4,1505.4,326.3,-0.7,1.8,2470.022,13.34,0.022,357.4
2019-08-27T09:21:47,42.805,6.029,-0.011,0.017,-0.015,102.0,108.0,100.0,13.4,1505.4,325.8,-0.8,1.9,2469.999,13.34,0.02,327.1
2019-08-27T09:24:48,42.805,6.029,-0.014,0.011,-0.029,102.0,110.0,99.0,13.3,1505.4,324.5,-0.7,1.8,2470.051,13.34,0.017,308.2
2019-08-27T09:27:49,42.805,6.029,0.011,0.016,-0.044,102.0,112.0,100.0,13.3,1505.4,326.3,-0.7,1.8,2470.044,13.34,0.019,34.5
2019-08-27T09:30:50,42.805,6.029,-0.001,0.026,-0.025,103.0,110.0,99.0,13.3,1505.4,324.5,-0.7,1.9,2470.046,13.34,0.026,357.8